Date String (YYYY-MM-DD hh:mm:ss) UTC,Instrument flags,absolute air pressure of the measurement (hPa),sample flow rate (lpm),inlet stack bypass flow (lpm),air temperature of the measurement (°C),ambient temperature measured by the external sensor (°C),aerosol sample conditioner tube jacket temperature (°C),OPC LED temperature (°C),internal box temperature (°C),relative humidity of the measurement (%),span deviation,mass concentration of particles derived from Lorenz-Mie calculation of OPC scattering (μg/m³),mass concentration of particles derived from Lorenz-Mie calculation of OPC scattering (μg/m³),mass concentration of particles derived from Lorenz-Mie calculation of OPC scattering (μg/m³)
DateTimeUTC,F1_M11,P_M11,Q1_M11,Q2_M11,T1_M11,T2_M11,T3_M11,T4_M11,T5_M11,U1_M11,ZSPAN_M11,X2_M11,X0_M11,X1_M11
2023-06-28 04:00:00,SystemResetWarning,0826.0,4.99,000.00,029.6,026.9,000.0,037.9,031.2,8.5,0000.0,0002.52,0008.82,0001.68
2023-06-28 04:01:00,SystemResetWarning,0826.0,5.01,000.00,029.6,025.3,000.0,037.9,031.2,8.6,0000.0,0002.53,0008.86,0001.70
2023-06-28 04:02:00,SystemResetWarning,0826.0,5.01,000.00,029.5,025.3,000.0,037.8,031.0,8.6,0000.0,0002.53,0008.59,0001.70
2023-06-28 04:03:00,SystemResetWarning,0826.0,5.00,000.00,029.4,025.6,000.0,037.9,030.8,8.6,0000.0,0002.57,0008.46,0001.69
2023-06-28 04:04:00,SystemResetWarning,0826.0,5.00,000.00,029.4,026.0,000.0,037.9,030.8,8.4,0000.0,0002.57,0008.21,0001.70
2023-06-28 04:05:00,SystemResetWarning,0826.0,5.00,000.00,029.4,026.4,000.0,037.9,030.8,8.3,0000.0,0002.61,0008.56,0001.70
2023-06-28 04:06:00,SystemResetWarning,0826.0,5.01,000.00,029.4,026.8,000.0,037.9,030.8,8.1,0000.0,0002.60,0009.03,0001.70
2023-06-28 04:07:00,SystemResetWarning,0826.1,4.99,000.00,029.4,027.2,000.0,037.9,030.9,8.1,0000.0,0002.54,0008.48,0001.70
2023-06-28 04:08:00,SystemResetWarning,0826.2,5.00,000.00,029.4,027.4,000.0,037.9,031.0,8.0,0000.0,0002.58,0008.77,0001.69
2023-06-28 04:09:00,SystemResetWarning,0826.2,5.00,000.00,029.5,027.7,000.0,037.9,031.0,8.0,0000.0,0002.64,0008.51,0001.70
2023-06-28 04:10:00,SystemResetWarning,0826.2,5.00,000.00,029.5,027.9,000.0,037.9,031.1,8.0,0000.0,0002.68,0008.16,0001.72
2023-06-28 04:11:00,SystemResetWarning,0826.2,5.01,000.00,029.5,028.0,000.0,038.0,031.1,8.0,0000.0,0002.69,0007.88,0001.73
2023-06-28 04:12:00,SystemResetWarning,0826.2,5.00,000.00,029.6,028.1,000.0,038.0,031.2,8.2,0000.0,0002.71,0007.78,0001.72
2023-06-28 04:13:00,SystemResetWarning,0826.2,4.98,000.00,029.6,026.4,000.0,037.9,031.3,8.3,0000.0,0002.76,0008.69,0001.72
2023-06-28 04:14:00,SystemResetWarning,0826.2,5.01,000.00,029.6,025.2,000.0,037.9,031.2,8.3,0000.0,0002.80,0009.14,0001.74
2023-06-28 04:15:00,SystemResetWarning,0826.2,5.01,000.00,029.5,025.4,000.0,037.9,031.0,8.3,0000.0,0002.79,0009.38,0001.73
2023-06-28 04:16:00,SystemResetWarning,0826.2,4.98,000.00,029.4,025.7,000.0,037.9,030.8,8.2,0000.0,0002.73,0009.06,0001.73
2023-06-28 04:17:00,SystemResetWarning,0826.2,5.00,000.00,029.4,026.2,000.0,037.9,030.8,8.2,0000.0,0002.70,0008.48,0001.71
2023-06-28 04:18:00,SystemResetWarning,0826.2,5.01,000.00,029.4,026.6,000.0,037.9,030.8,8.5,0000.0,0002.71,0008.48,0001.72
2023-06-28 04:19:00,SystemResetWarning,0826.2,5.01,000.00,029.4,026.9,000.0,037.9,030.9,8.5,0000.0,0002.74,0008.38,0001.73
2023-06-28 04:20:00,SystemResetWarning,0826.3,5.00,000.00,029.4,027.2,000.0,037.9,030.9,8.4,0000.0,0002.69,0007.80,0001.72
2023-06-28 04:21:00,SystemResetWarning,0826.3,5.00,000.00,029.5,027.5,000.0,038.0,031.0,8.4,0000.0,0002.70,0008.45,0001.70
2023-06-28 04:22:00,SystemResetWarning,0826.4,5.00,000.00,029.5,027.7,000.0,038.0,031.1,8.3,0000.0,0002.71,0008.45,0001.70
2023-06-28 04:23:00,SystemResetWarning,0826.4,5.00,000.00,029.5,027.9,000.0,038.0,031.1,8.4,0000.0,0002.69,0008.40,0001.70
2023-06-28 04:24:00,SystemResetWarning,0826.4,5.00,000.00,029.6,028.1,000.0,038.0,031.1,8.4,0000.0,0002.62,0007.76,0001.70
2023-06-28 04:25:00,SystemResetWarning,0826.4,4.98,000.00,029.6,027.0,000.0,038.0,031.2,8.3,0000.0,0002.61,0007.32,0001.70
2023-06-28 04:26:00,SystemResetWarning,0826.4,5.00,000.00,029.6,025.2,000.0,037.9,031.1,8.2,0000.0,0002.66,0006.92,0001.71
2023-06-28 04:27:00,SystemResetWarning,0826.4,5.01,000.00,029.5,025.2,000.0,037.9,031.0,8.4,0000.0,0002.71,0007.49,0001.73
2023-06-28 04:28:00,SystemResetWarning,0826.4,5.01,000.00,029.4,025.5,000.0,037.9,030.7,8.6,0000.0,0002.71,0007.55,0001.74
2023-06-28 04:29:00,SystemResetWarning,0826.4,5.00,000.00,029.4,025.9,000.0,037.9,030.7,8.5,0000.0,0002.72,0007.62,0001.75
2023-06-28 04:30:00,SystemResetWarning,0826.4,5.00,000.00,029.4,026.4,000.0,037.9,030.8,8.6,0000.0,0002.69,0007.51,0001.74
2023-06-28 04:31:00,SystemResetWarning,0826.4,5.00,000.00,029.4,026.8,000.0,037.9,030.8,8.7,0000.0,0002.73,0007.64,0001.75
2023-06-28 04:32:00,SystemResetWarning,0826.4,5.00,000.00,029.4,027.1,000.0,037.9,030.9,8.9,0000.0,0002.75,0007.48,0001.75
2023-06-28 04:33:00,SystemResetWarning,0826.4,5.00,000.00,029.4,027.4,000.0,037.9,030.9,8.9,0000.0,0002.66,0007.77,0001.73
2023-06-28 04:34:00,SystemResetWarning,0826.4,5.00,000.00,029.5,027.6,000.0,037.9,031.0,8.9,0000.0,0002.68,0008.53,0001.74
2023-06-28 04:35:00,SystemResetWarning,0826.5,5.00,000.00,029.5,027.8,000.0,038.0,031.0,8.8,0000.0,0002.76,0008.87,0001.75
2023-06-28 04:36:00,SystemResetWarning,0826.5,5.00,000.00,029.5,028.0,000.0,038.0,031.1,8.8,0000.0,0002.72,0009.26,0001.74
2023-06-28 04:37:00,SystemResetWarning,0826.6,5.00,000.00,029.6,028.1,000.0,038.0,031.1,8.8,0000.0,0002.65,0009.70,0001.73
2023-06-28 04:38:00,SystemResetWarning,0826.6,4.98,000.00,029.6,027.7,000.0,038.0,031.2,8.8,0000.0,0002.66,0009.32,0001.73
2023-06-28 04:39:00,SystemResetWarning,0826.5,4.99,000.00,029.6,025.6,000.0,037.9,031.1,8.8,0000.0,0002.70,0009.35,0001.72
2023-06-28 04:40:00,SystemResetWarning,0826.5,5.01,000.00,029.6,025.1,000.0,037.9,031.2,8.9,0000.0,0002.69,0009.31,0001.71
2023-06-28 04:41:00,SystemResetWarning,0826.5,5.01,000.00,029.5,025.4,000.0,037.9,030.8,9.0,0000.0,0002.69,0009.32,0001.71
2023-06-28 04:42:00,SystemResetWarning,0826.5,4.99,000.00,029.4,025.8,000.0,037.9,030.7,9.1,0000.0,0002.64,0009.11,0001.70
2023-06-28 04:43:00,SystemResetWarning,0826.5,5.00,000.00,029.4,026.2,000.0,037.9,030.8,9.0,0000.0,0002.55,0008.58,0001.70
2023-06-28 04:44:00,SystemResetWarning,0826.5,5.01,000.00,029.4,026.6,000.0,037.9,030.8,9.1,0000.0,0002.56,0007.97,0001.71
2023-06-28 04:45:00,SystemResetWarning,0826.5,4.99,000.00,029.4,026.9,000.0,037.9,030.9,9.0,0000.0,0002.52,0007.04,0001.70
2023-06-28 04:46:00,SystemResetWarning,0826.6,5.00,000.00,029.4,027.2,000.0,037.9,030.9,9.0,0000.0,0002.43,0006.81,0001.69
2023-06-28 04:47:00,SystemResetWarning,0826.6,5.01,000.00,029.5,027.5,000.0,037.9,030.9,8.9,0000.0,0002.42,0006.21,0001.68
2023-06-28 04:48:00,SystemResetWarning,0826.6,5.00,000.00,029.5,027.7,000.0,038.0,031.0,8.9,0000.0,0002.43,0005.12,0001.68
2023-06-28 04:49:00,SystemResetWarning,0826.6,4.99,000.00,029.5,027.9,000.0,038.0,031.1,8.9,0000.0,0002.40,0005.04,0001.67
2023-06-28 04:50:00,SystemResetWarning,0826.6,4.99,000.00,029.5,028.0,000.0,038.0,031.1,8.8,0000.0,0002.40,0005.00,0001.68
2023-06-28 04:51:00,SystemResetWarning,0826.6,4.99,000.00,029.6,028.1,000.0,038.0,031.2,8.9,0000.0,0002.40,0005.05,0001.68
2023-06-28 04:52:00,SystemResetWarning,0826.6,5.00,000.00,029.6,027.4,000.0,038.0,031.2,8.9,0000.0,0002.41,0005.11,0001.70
2023-06-28 04:53:00,SystemResetWarning,0826.6,5.00,000.00,029.6,025.3,000.0,037.9,031.2,8.8,0000.0,0002.43,0005.22,0001.71
2023-06-28 04:54:00,SystemResetWarning,0826.6,5.01,000.00,029.6,025.0,000.0,037.9,031.1,8.9,0000.0,0002.45,0005.69,0001.71
2023-06-28 04:55:00,SystemResetWarning,0826.6,5.01,000.00,029.5,025.3,000.0,037.9,030.9,9.1,0000.0,0002.50,0006.11,0001.71
2023-06-28 04:56:00,SystemResetWarning,0826.6,4.99,000.00,029.4,025.7,000.0,037.9,030.8,8.9,0000.0,0002.52,0006.47,0001.71
2023-06-28 04:57:00,SystemResetWarning,0826.5,5.00,000.00,029.4,026.2,000.0,037.9,030.8,9.0,0000.0,0002.52,0006.77,0001.72
2023-06-28 04:58:00,SystemResetWarning,0826.6,5.00,000.00,029.4,026.6,000.0,037.9,030.8,9.1,0000.0,0002.56,0006.07,0001.73
2023-06-28 04:59:00,SystemResetWarning,0826.6,5.00,000.00,029.4,026.9,000.0,037.9,030.8,9.1,0000.0,0002.55,0006.08,0001.73
